Regional Weather Roundup
Issued by NWS Boston, MA

Current Version | Previous Version | Text Only | Print | Product List | Glossary On
Versions: 1 2 3 4 5 6 7 8 9 10 11 12 13 14 15 16 17 18 19 20 21 22 23 24 25 26 27 28 29 30 31 32 33 34 35 36 37 38 39 40 41 42 43 44 45 46
000
ASUS41 KBOX 010904
RWRBOX

REGIONAL WEATHER ROUNDUP
NATIONAL WEATHER SERVICE BOSTON/NORTON MA
500 AM EDT MON JUN 01 2020

NOTE:  "FAIR" INDICATES FEW OR NO CLOUDS BELOW 12,000 FEET WITH NO
SIGNIFICANT WEATHER AND/OR OBSTRUCTIONS TO VISIBILITY.

MAZALL-011000-
EASTERN MASSACHUSETTS

CITY           SKY/WX    TMP DP  RH WIND       PRES   REMARKS
BOSTON         CLOUDY    49  30  48 W8        30.16R
BEVERLY        CLOUDY    46  36  68 NW7       30.14R
LAWRENCE       CLOUDY    46  35  65 N3        30.17R
BEDFORD        CLEAR     40  36  86 CALM      30.15R
BLUE HILL        N/A     42  33  70 NW8       30.13R
NORWOOD        PTCLDY    42  36  79 CALM      30.16R
MARSHFIELD     CLOUDY    48  36  61 CALM      30.14R
PLYMOUTH       CLOUDY    45  35  68 W5        30.14R
TAUNTON        MOCLDY    41  36  82 CALM      30.15R
NEW BEDFORD    CLEAR     39  34  82 CALM      30.15R
$$

MAZALL-011000-
CAPE COD AND THE ISLANDS

CITY           SKY/WX    TMP DP  RH WIND       PRES   REMARKS
FALMOUTH       PTCLDY    39  32  75 NW3       30.14S
HYANNIS        CLEAR     50  34  54 N6        30.13R
CHATHAM        CLEAR     44  34  67 CALM      30.15R
PROVINCETOWN   CLOUDY    50  38  63 N8        30.15R
NANTUCKET      CLEAR     50  34  54 N9        30.14R
MARTHAS VNYRD  CLEAR     39  31  72 N3        30.15R
$$

MAZALL-011000-
CENTRAL AND WESTERN MASSACHUSETTS

CITY           SKY/WX    TMP DP  RH WIND       PRES   REMARKS
WORCESTER      CLEAR     40  33  76 W9        30.14R
FITCHBURG      CLEAR     40  34  79 NW5       30.16R
ORANGE         CLEAR     35  34  96 CALM      30.18R
SPRINGFIELD    CLEAR     34  33  95 E3        30.16S
WESTFIELD      CLEAR     37  35  92 CALM      30.17S
NORTH ADAMS    CLEAR     34  32  92 CALM      30.19R
PITTSFIELD     CLEAR     40  35  83 CALM      30.15S
$$

RIZALL-011000-
RHODE ISLAND

CITY           SKY/WX    TMP DP  RH WIND       PRES   REMARKS
PROVIDENCE     MOCLDY    45  37  73 W5        30.17R
NEWPORT        CLEAR     44  35  70 CALM      30.16R
BLOCK ISLAND   CLEAR     45  37  73 N5        30.18R
SMITHFIELD     CLEAR     38  35  89 CALM      30.16R
WESTERLY       CLEAR     44  36  73 CALM      30.18R
$$

CTZALL-011000-
CONNECTICUT

CITY           SKY/WX    TMP DP  RH WIND       PRES   REMARKS
BRADLEY INTL   CLEAR     41  36  82 CALM      30.17S
HARTFORD       CLEAR     44  41  89 SE3       30.18R
BRIDGEPORT     CLEAR     47  38  71 NW3       30.19R
DANBURY        CLEAR     39  36  89 CALM      30.20R
GROTON         CLEAR     41  37  86 N3        30.17R
NEW HAVEN      CLEAR     44  37  76 NW3       30.19R
CHESTER        NOT AVBL
MERIDEN        CLEAR     41  38  89 CALM      30.19R
WILLIMANTIC    CLEAR     39  36  89 CALM      30.18R
OXFORD         CLEAR     40  35  83 N6        30.18S
$$

MEZ002-015-021-024-NHZ003-005-008-011-012-014-VTZ005-008-011000-
NORTHERN NEW ENGLAND

CITY           SKY/WX    TMP DP  RH WIND       PRES   REMARKS
PORTLAND ME    PTCLDY    39  32  76 W5        30.13R
BANGOR ME      CLEAR     36  28  73 W6        30.09R WCI  31
CONCORD NH     CLEAR     33  31  92 CALM      30.16R
MANCHESTER NH  PTCLDY    43  35  73 MISG      30.14R
NASHUA NH      CLEAR     39  38  96 CALM      30.16R
PORTSMOUTH NH  MOCLDY    42  34  72 W5        30.13R
JAFFREY NH     CLEAR     38  33  82 CALM      30.15R
KEENE NH       PTCLDY    34  34 100 CALM      30.18R FOG
BURLINGTON VT  PTCLDY    39  36  89 E3        30.17R
MT. WASHINGTON FOG       19  19 100 NW33        N/A  VSB 0   WCI   0
$$

NYZ052-076-011000-
EASTERN NEW YORK

CITY           SKY/WX    TMP DP  RH WIND       PRES   REMARKS
ALBANY         MOCLDY    43  36  76 CALM      30.19R
NEW YORK CITY  CLEAR     55  34  45 NW10      30.20R
$$

ANZALL-011000-
MARINE OBSERVATIONS

STATION/POSITION TIME  TEMP    WIND        PRES    VSBY  WAVE
                       AIR SEA DIR/SP/G                  HT/PER
                 (UTC) (F)     (DEG/KT/KT) (MB)    (MI)  (FT/S)
BOSTON BUOY      0850   51 55  310/ 12/ 14 1019.7S         2/ 5
BUZZARDS BAY     0800          360/ 10/ 11 1021.9R
NANTUCKET SOUND  0850   52 59  330/ 12/ 16 1020.3R         1/ 3
MASS BAY-STELLWA NOT AVBL
ISLE OF SHOALS   0800   45     300/ 12/ 13 1019.8F
S OF BLOCK IS    0830      54                N/A           3/ 4
$$

......................KEY.........................
  SKY/WX - SKY CONDITION/PRESENT WEATHER
  TMP    - TEMPERATURE IN FAHRENHEIT
  DWPT   - DEWPOINT IN FAHRENHEIT
  RH     - RELATIVE HUMIDITY IN PERCENT
  WIND   - DIRECTION AND SPEED IN MPH
  PRES   - MEAN SEA LEVEL PRESSURE IN INCHES OF HG
  WCI    - WIND CHILL INDEX
  VSB    - VISIBILITY IN MILES
  HX     - HEAT INDEX
  TC     - TEMPERATURE IN CELSIUS
  VRB    - VARIABLE WIND DIRECTION
  N/A    - NOT AVAILABLE



USA.gov is the U.S. government's official web portal to all federal, state and local government web resources and services.